Torna al catalogo

OPS 1264

DMSP 4A F4

AttivoMeteoPO
NORAD 2980·PAYLOAD·🇺🇸 United States

Lanciato Oct 11, 1967 da Vandenberg Space Force Base

Loading…

Prossimi Passaggi (prossime 24 ore)

TLE

AggiornatoSource: Space-Track

Epoca: Sep 14, 2026, 05:27 UTC

1 02980U 67096A   26257.22776943  .00000394  00000-0  83885-4 0  9991
2 02980  99.1770 343.0479 0092754 199.8528 159.9052 14.63065166100148

Traccia OPS 1264 in tempo reale con AllMySat

Download on the App Store